Hourly Weather Pabna

Today, 8 August, Saturday

Time Temperature Precipitation Wind Pressure Humidity
00:00 +29°C° 0.1 mm 4 mps 749 mmHg 90%
01:00 +29°C° 0 mm 3 mps 749 mmHg 91%
02:00 +29°C° 0 mm 3 mps 749 mmHg 92%
03:00 +29°C° 0 mm 3 mps 748 mmHg 93%
04:00 +28°C° 0 mm 3 mps 748 mmHg 94%
05:00 +28°C° 0 mm 2 mps 748 mmHg 94%
06:00 +28°C° 0 mm 2 mps 748 mmHg 94%
07:00 +30°C° 0 mm 3 mps 748 mmHg 88%
08:00 +31°C° 0 mm 3 mps 749 mmHg 82%
09:00 +33°C° 0 mm 3 mps 749 mmHg 76%
10:00 +34°C° 0 mm 3 mps 749 mmHg 71%
11:00 +35°C° 0 mm 3 mps 748 mmHg 66%
12:00 +36°C° 0 mm 3 mps 748 mmHg 61%
13:00 +36°C° 0 mm 3 mps 747 mmHg 61%
14:00 +37°C° 0 mm 3 mps 746 mmHg 60%
15:00 +37°C° 0 mm 3 mps 746 mmHg 60%
16:00 +36°C° 0 mm 3 mps 745 mmHg 63%
17:00 +36°C° 0 mm 3 mps 745 mmHg 66%
18:00 +35°C° 0 mm 3 mps 745 mmHg 69%
19:00 +34°C° 0 mm 3 mps 745 mmHg 73%
20:00 +33°C° 0 mm 3 mps 746 mmHg 76%
21:00 +32°C° 0 mm 4 mps 747 mmHg 80%
22:00 +32°C° 0.2 mm 4 mps 747 mmHg 81%
23:00 +32°C° 0.2 mm 4 mps 747 mmHg 83%

Tomorrow, 9 August, Sunday

Time Temperature Precipitation Wind Pressure Humidity
00:00 +30°C° 0.2 mm 4 mps 747 mmHg 85%
01:00 +30°C° 0.4 mm 4 mps 747 mmHg 86%
02:00 +30°C° 0.4 mm 4 mps 747 mmHg 87%
03:00 +29°C° 0.4 mm 4 mps 747 mmHg 88%
04:00 +29°C° 0 mm 4 mps 747 mmHg 88%
05:00 +29°C° 0 mm 3 mps 747 mmHg 89%
06:00 +29°C° 0 mm 3 mps 747 mmHg 90%
07:00 +30°C° 0.1 mm 3 mps 747 mmHg 84%
08:00 +33°C° 0.1 mm 4 mps 748 mmHg 78%
09:00 +34°C° 0.1 mm 4 mps 748 mmHg 72%
10:00 +35°C° 0.3 mm 4 mps 748 mmHg 69%
11:00 +36°C° 0.3 mm 4 mps 747 mmHg 66%
12:00 +37°C° 0.3 mm 5 mps 747 mmHg 62%
13:00 +37°C° 0.5 mm 5 mps 746 mmHg 62%
14:00 +37°C° 0.5 mm 5 mps 746 mmHg 63%
15:00 +36°C° 0.5 mm 4 mps 745 mmHg 63%
16:00 +36°C° 0.6 mm 4 mps 745 mmHg 67%
17:00 +35°C° 0.6 mm 3 mps 745 mmHg 70%
18:00 +34°C° 0.6 mm 3 mps 745 mmHg 74%
19:00 +34°C° 0.2 mm 3 mps 746 mmHg 76%
20:00 +33°C° 0.2 mm 3 mps 746 mmHg 79%
21:00 +32°C° 0.2 mm 4 mps 747 mmHg 81%
22:00 +32°C° 0 mm 4 mps 747 mmHg 83%
23:00 +30°C° 0 mm 4 mps 747 mmHg 84%

Day after tomorrow, 10 August, Monday

Time Temperature Precipitation Wind Pressure Humidity
00:00 +30°C° 0 mm 4 mps 748 mmHg 85%
01:00 +29°C° 0 mm 4 mps 747 mmHg 87%
02:00 +29°C° 0 mm 3 mps 747 mmHg 88%
03:00 +29°C° 0 mm 3 mps 747 mmHg 89%
04:00 +29°C° 0 mm 3 mps 747 mmHg 91%
05:00 +29°C° 0 mm 3 mps 747 mmHg 92%
06:00 +29°C° 0 mm 2 mps 747 mmHg 93%
07:00 +30°C° 0 mm 3 mps 748 mmHg 86%
08:00 +31°C° 0 mm 3 mps 748 mmHg 80%
09:00 +34°C° 0 mm 4 mps 749 mmHg 74%
10:00 +34°C° 0.1 mm 4 mps 748 mmHg 71%
11:00 +35°C° 0.1 mm 3 mps 748 mmHg 68%
12:00 +36°C° 0.1 mm 3 mps 748 mmHg 65%
13:00 +36°C° 0.1 mm 3 mps 747 mmHg 62%
14:00 +36°C° 0.1 mm 3 mps 746 mmHg 60%
15:00 +37°C° 0.1 mm 2 mps 746 mmHg 57%
16:00 +36°C° 0.4 mm 3 mps 745 mmHg 62%
17:00 +35°C° 0.4 mm 3 mps 745 mmHg 67%
18:00 +34°C° 0.4 mm 3 mps 745 mmHg 72%
19:00 +34°C° 0 mm 3 mps 746 mmHg 75%
20:00 +33°C° 0 mm 3 mps 746 mmHg 78%
21:00 +31°C° 0 mm 2 mps 747 mmHg 82%
22:00 +31°C° 0.7 mm 3 mps 747 mmHg 83%
23:00 +30°C° 0.7 mm 3 mps 747 mmHg 85%

11 August, Tuesday

Time Temperature Precipitation Wind Pressure Humidity
00:00 +30°C° 0.7 mm 3 mps 747 mmHg 87%
01:00 +30°C° 0.4 mm 3 mps 747 mmHg 88%
02:00 +29°C° 0.4 mm 3 mps 747 mmHg 89%
03:00 +29°C° 0.4 mm 2 mps 746 mmHg 91%
04:00 +29°C° 0 mm 2 mps 746 mmHg 91%
05:00 +29°C° 0 mm 2 mps 746 mmHg 91%
06:00 +29°C° 0 mm 2 mps 747 mmHg 92%
07:00 +30°C° 0 mm 2 mps 747 mmHg 86%
08:00 +31°C° 0 mm 3 mps 747 mmHg 79%
09:00 +34°C° 0 mm 4 mps 748 mmHg 73%
10:00 +35°C° 0.3 mm 4 mps 748 mmHg 70%
11:00 +35°C° 0.3 mm 3 mps 747 mmHg 67%
12:00 +36°C° 0.3 mm 3 mps 747 mmHg 64%
13:00 +36°C° 1.4 mm 3 mps 746 mmHg 65%
14:00 +36°C° 1.4 mm 3 mps 746 mmHg 65%
15:00 +36°C° 1.4 mm 4 mps 745 mmHg 65%
16:00 +35°C° 2.7 mm 4 mps 745 mmHg 70%
17:00 +34°C° 2.7 mm 4 mps 745 mmHg 76%
18:00 +33°C° 2.7 mm 4 mps 745 mmHg 81%
19:00 +33°C° 2.6 mm 5 mps 746 mmHg 83%
20:00 +32°C° 2.6 mm 5 mps 746 mmHg 85%
21:00 +32°C° 2.6 mm 5 mps 747 mmHg 87%
22:00 +30°C° 0.6 mm 5 mps 747 mmHg 88%
23:00 +30°C° 0.6 mm 4 mps 747 mmHg 89%

12 August, Wednesday

Time Temperature Precipitation Wind Pressure Humidity
00:00 +30°C° 0.6 mm 4 mps 748 mmHg 90%
01:00 +30°C° 0 mm 4 mps 747 mmHg 91%
02:00 +29°C° 0 mm 3 mps 747 mmHg 92%
03:00 +29°C° 0 mm 3 mps 746 mmHg 92%
04:00 +29°C° 0 mm 3 mps 746 mmHg 92%
05:00 +29°C° 0 mm 3 mps 747 mmHg 92%
06:00 +29°C° 0 mm 3 mps 747 mmHg 91%
07:00 +30°C° 0.1 mm 3 mps 747 mmHg 87%
08:00 +32°C° 0.1 mm 4 mps 748 mmHg 83%
09:00 +33°C° 0.1 mm 4 mps 748 mmHg 78%
10:00 +34°C° 0.1 mm 4 mps 748 mmHg 74%
11:00 +35°C° 0.1 mm 4 mps 747 mmHg 70%
12:00 +36°C° 0.1 mm 4 mps 747 mmHg 66%
13:00 +36°C° 0.6 mm 4 mps 746 mmHg 65%
14:00 +36°C° 0.6 mm 4 mps 746 mmHg 65%
15:00 +37°C° 0.6 mm 4 mps 745 mmHg 64%
16:00 +36°C° 0.9 mm 4 mps 745 mmHg 69%
17:00 +34°C° 0.9 mm 4 mps 745 mmHg 73%
18:00 +33°C° 0.9 mm 4 mps 745 mmHg 78%
19:00 +33°C° 0.4 mm 4 mps 745 mmHg 80%
20:00 +32°C° 0.4 mm 4 mps 746 mmHg 82%
21:00 +31°C° 0.4 mm 3 mps 747 mmHg 84%
22:00 +30°C° 0.1 mm 4 mps 747 mmHg 85%
23:00 +30°C° 0.1 mm 4 mps 747 mmHg 87%

13 August, Thursday

Time Temperature Precipitation Wind Pressure Humidity
00:00 +30°C° 0.1 mm 4 mps 747 mmHg 88%
01:00 +30°C° 0 mm 4 mps 747 mmHg 89%
02:00 +29°C° 0 mm 4 mps 747 mmHg 89%
03:00 +29°C° 0 mm 3 mps 746 mmHg 90%
04:00 +29°C° 0 mm 4 mps 746 mmHg 90%
05:00 +29°C° 0 mm 4 mps 746 mmHg 91%
06:00 +29°C° 0 mm 4 mps 747 mmHg 91%
07:00 +30°C° 0.2 mm 5 mps 747 mmHg 87%
08:00 +32°C° 0.2 mm 5 mps 747 mmHg 82%
09:00 +33°C° 0.2 mm 5 mps 748 mmHg 78%
10:00 +34°C° 1.2 mm 5 mps 747 mmHg 75%
11:00 +35°C° 1.2 mm 6 mps 747 mmHg 73%
12:00 +36°C° 1.2 mm 6 mps 747 mmHg 70%
13:00 +36°C° 1.9 mm 6 mps 746 mmHg 70%
14:00 +36°C° 1.9 mm 6 mps 745 mmHg 70%
15:00 +36°C° 1.9 mm 6 mps 745 mmHg 71%
16:00 +35°C° 1.1 mm 6 mps 745 mmHg 74%
17:00 +34°C° 1.1 mm 5 mps 745 mmHg 77%
18:00 +33°C° 1.1 mm 5 mps 744 mmHg 79%
19:00 +33°C° 0.5 mm 5 mps 745 mmHg 82%
20:00 +32°C° 0.5 mm 5 mps 746 mmHg 84%
21:00 +30°C° 0.5 mm 5 mps 746 mmHg 86%
22:00 +30°C° 0.1 mm 5 mps 747 mmHg 87%
23:00 +30°C° 0.1 mm 4 mps 747 mmHg 88%
Show more